Flag for Norway Weather past 2 weeks in Stavern, Norway

Now
43 °F

Passing clouds.


Feels Like: 40 °F
Forecast: 31 / 44 °F
Wind: 5 mph from North

Location: Torp

Current Time: Mar 30, 2015 at 7:38:24 PM

Latest Report: Mar 30, 2015 at 6:50 PM


Visibility: N/A

Pressure: 29.15 "Hg

Humidity: 76%

Dew point: 36 °F

Location of StavernLocation

Historic Weather in Stavern — Graph

°F

Stavern temperature yesterday

Maximum temperature yesterday: 46 °F (at 2:20 PM)
Minimum temperature yesterday: 36 °F (at 12:20 AM)
Average temperature yesterday: 40 °F

Past Weeks' High & Low Weather Summary

 TemperatureHumidityPressure
High50 °F (Mar 24, 2:50 PM)100% (Mar 17, 3:20 AM)30.80 "Hg (Mar 17, 3:20 AM)
Low27 °F (Mar 28, 5:50 AM)33% (Mar 21, 3:20 PM)28.91 "Hg (Mar 30, 4:50 AM)
Average37 °F83%29.99 "Hg
* Reported Mar 15 5:20 PM — Mar 30 6:20 PM, Stavern, Weather by CustomWeather, © 2015

Note: Actual official high and low records may vary slightly from our data, if they occured in-between our weather recording intervals... More about our weather records

Advertising

Stavern weather history for previous 24 hours

 ConditionsComfort  
Time TempWeatherWind HumidityBarometerVisibility
6:20 PM
Mon, Mar 30
43 °FPassing clouds.3 mph71%29.12 "HgN/A
5:50 PM43 °FPassing clouds.3 mph76%29.12 "HgN/A
5:20 PM43 °FPassing clouds.6 mph71%29.12 "HgN/A
4:50 PM43 °FScattered clouds.10 mph71%29.12 "HgN/A
4:20 PM43 °FScattered clouds.14 mph71%29.12 "HgN/A
3:50 PM41 °FScattered clouds.8 mph81%29.09 "HgN/A
3:20 PM39 °FBroken clouds.10 mph87%29.09 "HgN/A
2:50 PM39 °FMostly cloudy.8 mph87%29.09 "HgN/A
2:20 PM39 °FPartly sunny.7 mph87%29.09 "HgN/A
1:50 PM39 °FBroken clouds.8 mph87%29.06 "HgN/A
1:20 PM37 °FPartly sunny.9 mph93%29.06 "HgN/A
12:50 PM37 °FPartly sunny.9 mph87%29.06 "HgN/A
12:20 PM36 °FLow clouds.9 mph93%29.03 "HgN/A
11:50 AM36 °FDrizzle. Partly sunny.9 mph93%29.03 "Hg4 mi
11:20 AM36 °FLight rain. Low clouds.8 mph93%29.03 "HgN/A
10:50 AM36 °FLight rain. Low clouds.8 mph93%29.00 "HgN/A
10:20 AM36 °FDrizzle. Low clouds.7 mph93%29.00 "HgN/A
9:50 AM36 °FLight rain. Low clouds.8 mph93%29.00 "HgN/A
9:20 AM36 °FLight rain. Low clouds.8 mph93%28.97 "HgN/A
8:50 AM36 °FLight rain. Partly sunny.8 mph100%28.97 "HgN/A
8:20 AM36 °FLight rain. Low clouds.6 mph100%28.97 "HgN/A
7:50 AM36 °FLight rain. Low clouds.6 mph100%28.97 "HgN/A
7:20 AM36 °FDrizzle. Low clouds.6 mph100%28.94 "Hg6 mi
6:50 AM36 °FLight rain. Low clouds.6 mph100%28.94 "Hg6 mi
6:20 AM36 °FRain. Low clouds.6 mph100%28.94 "Hg5 mi
5:50 AM36 °FPassing clouds.3 mph100%28.91 "Hg4 mi
5:20 AM36 °FDrizzle. Overcast.3 mph100%28.91 "Hg1 mi
4:50 AM36 °FDrizzle. Low clouds.5 mph100%28.91 "Hg0 mi
4:20 AM36 °FDrizzle. Low clouds.6 mph100%28.94 "Hg0 mi
3:50 AM36 °FDrizzle. Mostly cloudy.5 mph100%28.94 "Hg0 mi
3:20 AM36 °FFog.2 mph100%28.94 "Hg0 mi
2:50 AM36 °FFog.1 mph100%28.94 "Hg0 mi
2:20 AM36 °FFog.3 mph100%28.94 "Hg0 mi
1:50 AM36 °FFog.2 mph100%28.94 "Hg0 mi
1:20 AM36 °FDrizzle. Low clouds.2 mph100%28.94 "Hg0 mi
12:50 AM37 °FFog.2 mph100%28.94 "Hg0 mi
12:20 AM37 °FFog.1 mph100%28.94 "Hg1 mi
11:50 PM
Sun, Mar 29
37 °FLight rain. Low clouds.3 mph100%28.97 "Hg1 mi
11:20 PM37 °FPassing clouds.6 mph100%28.97 "HgN/A
10:50 PM37 °FMostly cloudy.6 mph100%28.97 "HgN/A
10:20 PM39 °FPassing clouds.8 mph93%28.97 "HgN/A
9:50 PM37 °FPassing clouds.8 mph93%29.00 "HgN/A
9:20 PM37 °FPassing clouds.7 mph100%29.00 "HgN/A
8:50 PM39 °FScattered clouds.9 mph93%29.00 "HgN/A
8:20 PM39 °FScattered showers. Partly sunny.6 mph93%29.00 "HgN/A
7:50 PM41 °FScattered showers. Scattered clouds.3 mph87%29.00 "HgN/A
7:20 PM41 °FScattered showers. Partly sunny.2 mph87%29.00 "HgN/A
Weather by CustomWeather, © 2015

See weather overviewHow to use our weather pages